Hofstra Student Garden NY US WEATHERSTEM current weather conditions

sailwx.info

Air temperature 20.4° C
Dewpoint 18.6° C

Last reported at 2020-Sep-29 02:40 UTC.
Time now 2020-Sep-29 04:08 UTC

Location: N 40°43' W 073°36'.
View on Google Maps.

See reports from other nearby stations

  
Tides and Currents Weather Stations Pressure Air Temp Water Temp Dewpoint Dewpoint Depression Visibility Wind Speed Wind Dir Waves Ship Positions
date/time (UTC)wind fromknots sea level pressurealtimeterstation pressurevisibilityair tempwater tempwave heightnotes
2020-Sep-29 02:40 20.4
2020-Sep-29 02:30 285 0 gusting 2 20.4
2020-Sep-29 02:20 192 2 gusting 3 20.5
2020-Sep-29 02:00 217 0 gusting 2 20.5
2020-Sep-29 01:40 20.6
2020-Sep-29 01:30 211 0 gusting 5 20.7
2020-Sep-29 01:20 217 0 gusting 4 20.8
2020-Sep-29 01:10 277 0 gusting 4 20.8
2020-Sep-29 00:40 267 0 gusting 6 21.1
2020-Sep-29 00:10 21.1
2020-Sep-29 00:00 180 1 gusting 6 21.1
2020-Sep-28 23:40 261 1 gusting 6 21.1
2020-Sep-28 23:30 277 3 gusting 6 21.1
2020-Sep-28 23:10 223 2 gusting 6 21.3
2020-Sep-28 23:00 271 5 gusting 5 21.4
2020-Sep-28 22:40 209 6 gusting 7 21.8
2020-Sep-28 22:30 252 2 gusting 7 22.1
2020-Sep-28 22:20 234 0 gusting 4 22.2
2020-Sep-28 22:00 223 3 gusting 6 22.4
2020-Sep-28 21:40 217 0 gusting 6 22.6
2020-Sep-28 21:20 284 5 gusting 8 22.9
2020-Sep-28 21:10 170 6 gusting 8 23.1
2020-Sep-28 17:10 284 3 gusting 6 24.3
2020-Sep-28 17:00 169 0 gusting 6 24.3
2020-Sep-28 16:40 258 3 gusting 10 23.8
2020-Sep-28 16:30 236 3 gusting 10 23.4
2020-Sep-28 16:20 246 6 gusting 10 22.9
2020-Sep-28 16:10 271 2 gusting 10 22.8
2020-Sep-28 16:00 312 2 gusting 10 22.7
2020-Sep-28 15:40 115 3 gusting 9 22.7
2020-Sep-28 15:30 244 3 gusting 12 22.8
2020-Sep-28 15:20 196 3 gusting 8 22.8
2020-Sep-28 15:10 272 3 gusting 11 22.6
2020-Sep-28 15:00 216 0 gusting 10 22.2
2020-Sep-28 12:40 210 2 gusting 9 20.6
2020-Sep-28 12:30 20.6
2020-Sep-28 12:20 229 2 gusting 7 20.4
2020-Sep-28 12:10 273 3 gusting 9 20.4
2020-Sep-28 12:00 264 8 gusting 11 20.3
2020-Sep-28 11:40 263 3 gusting 8 20.3
2020-Sep-28 11:30 255 3 gusting 6 20.3
2020-Sep-28 11:20 263 3 gusting 6 20.3
2020-Sep-28 11:10 229 1 gusting 6 20.3
2020-Sep-28 11:00 217 2 gusting 8 20.4
2020-Sep-28 10:40 261 2 gusting 6 20.4
2020-Sep-28 10:30 259 0 gusting 6 20.3
2020-Sep-28 10:20 272 5 gusting 6 20.3
2020-Sep-28 10:10 20.2
2020-Sep-28 10:00 267 1 gusting 7 20.2
2020-Sep-28 09:40 235 2 gusting 7 20.2
2020-Sep-28 09:30 279 8 gusting 9 20.2
2020-Sep-28 09:20 261 7 gusting 7 20.3
2020-Sep-28 09:10 273 3 gusting 7 20.3
2020-Sep-28 09:00 240 6 gusting 8 20.3
2020-Sep-28 08:40 167 4 gusting 9 20.5
2020-Sep-28 08:30 251 4 gusting 13 20.5
2020-Sep-28 08:20 299 3 gusting 11 20.6
2020-Sep-28 08:10 250 4 gusting 8 20.7
2020-Sep-28 08:00 274 6 gusting 12 20.7
2020-Sep-28 07:40 254 2 gusting 9 20.9
2020-Sep-28 07:30 261 2 gusting 11 21.0
2020-Sep-28 07:20 250 2 gusting 9 21.1
2020-Sep-28 07:10 246 6 gusting 7 21.1
2020-Sep-28 07:00 269 2 gusting 6 21.1
2020-Sep-28 06:40 232 1 gusting 6 21.1
2020-Sep-28 06:30 259 3 gusting 6 21.1
2020-Sep-28 06:20 234 4 gusting 10 21.1
2020-Sep-28 06:10 268 2 gusting 12 21.1
2020-Sep-28 06:00 263 5 gusting 8 21.1
2020-Sep-28 05:40 186 3 gusting 8 21.0
2020-Sep-28 05:30 217 1 gusting 6 20.9
2020-Sep-28 05:20 306 1 gusting 9 20.9
2020-Sep-28 05:10 236 1 gusting 9 20.9
2020-Sep-28 05:00 098 5 gusting 8 20.9
2020-Sep-28 04:40 21.0
2020-Sep-28 04:30 180 5 gusting 8 21.1
2020-Sep-28 04:20 205 1 gusting 6 21.1
2020-Sep-28 04:10 280 1 gusting 6 21.2
2020-Sep-28 03:40 148 2 gusting 6 21.3
2020-Sep-28 03:30 197 0 gusting 6 21.3
2020-Sep-28 03:20 135 1 gusting 6 21.3
2020-Sep-28 03:10 136 2 gusting 5 21.4
2020-Sep-28 03:00 194 0 gusting 7 21.5
2020-Sep-28 02:40 236 0 gusting 6 21.8
2020-Sep-28 02:30 195 0 gusting 3 22.0
2020-Sep-28 02:20 175 0 gusting 2 22.1
2020-Sep-28 02:10 165 0 gusting 2 22.2
2020-Sep-28 02:00 22.2
2020-Sep-28 01:40 158 1 gusting 3 22.3
2020-Sep-28 01:30 219 0 gusting 3 22.3
2020-Sep-28 01:20 074 3 gusting 4 22.4
2020-Sep-28 01:10 123 2 gusting 6 22.4
2020-Sep-28 01:00 125 1 gusting 4 22.4
2020-Sep-28 00:40 169 3 gusting 3 22.4
2020-Sep-28 00:30 22.4
2020-Sep-28 00:20 22.5
2020-Sep-28 00:10 165 1 gusting 4 22.5
2020-Sep-28 00:00 145 1 gusting 4 22.6
2020-Sep-27 23:40 094 0 gusting 3 22.8
2020-Sep-27 23:30 22.8
2020-Sep-27 23:20 132 0 gusting 4 22.9
2020-Sep-27 23:10 22.9
2020-Sep-27 23:00 203 0 gusting 5 23.1
2020-Sep-27 22:40 110 3 gusting 4 23.2
2020-Sep-27 22:30 123 1 gusting 4 23.3
2020-Sep-27 22:20 190 0 gusting 3 23.3
2020-Sep-27 22:10 134 1 gusting 3 23.3
2020-Sep-27 22:00 128 0 gusting 4 23.4
2020-Sep-27 21:40 277 0 gusting 5 23.7
2020-Sep-27 21:30 104 1 gusting 4 23.9
2020-Sep-27 21:20 170 1 gusting 6 24.2
2020-Sep-27 21:10 254 3 gusting 8 24.7
2020-Sep-27 21:00 146 2 gusting 6 25.1
2020-Sep-27 20:40 186 0 gusting 6 26.0
2020-Sep-27 20:30 26.2
2020-Sep-27 20:20 249 1 gusting 6 26.3
2020-Sep-27 20:10 193 1 gusting 6 26.5
2020-Sep-27 20:00 230 2 gusting 6 26.5
2020-Sep-27 19:40 128 2 gusting 7 26.4
2020-Sep-27 19:30 225 1 gusting 6 26.3
2020-Sep-27 19:20 279 1 gusting 6 25.9
2020-Sep-27 19:10 230 2 gusting 4 25.7
2020-Sep-27 19:00 267 3 gusting 6 25.5
2020-Sep-27 18:40 269 2 gusting 5 25.4
2020-Sep-27 18:30 138 0 gusting 3 25.5
2020-Sep-27 18:20 250 2 gusting 3 25.7
2020-Sep-27 18:10 269 0 gusting 4 25.9
2020-Sep-27 18:00 250 2 gusting 7 26.1
2020-Sep-27 17:40 202 2 gusting 6 25.4
2020-Sep-27 17:30 257 1 gusting 6 24.9
2020-Sep-27 17:20 241 2 gusting 6 24.8
2020-Sep-27 17:10 267 7 gusting 7 24.8
2020-Sep-27 17:00 260 0 gusting 6 24.8
2020-Sep-27 16:40 199 0 gusting 7 24.7
2020-Sep-27 16:30 275 3 gusting 6 24.6
2020-Sep-27 16:20 191 0 gusting 5 24.4
2020-Sep-27 16:10 229 1 gusting 6 24.6
2020-Sep-27 16:00 24.7
2020-Sep-27 15:40 185 1 gusting 3 24.2
2020-Sep-27 15:30 244 2 gusting 6 23.7
2020-Sep-27 15:20 23.6
2020-Sep-27 15:10 291 2 gusting 5 23.4
2020-Sep-27 15:00 251 1 gusting 4 23.1
2020-Sep-27 14:40 287 1 gusting 6 22.6
2020-Sep-27 14:30 116 0 gusting 4 22.3
2020-Sep-27 14:10 153 1 gusting 2 21.6
2020-Sep-27 14:00 131 1 gusting 5 21.3
2020-Sep-27 13:40 182 1 gusting 3 21.0
2020-Sep-27 13:30 20.8
2020-Sep-27 13:20 173 1 gusting 3 20.8
2020-Sep-27 13:10 138 0 gusting 4 20.7
2020-Sep-27 13:00 20.6
2020-Sep-27 12:30 20.2
2020-Sep-27 12:20 155 0 gusting 2 20.0
2020-Sep-27 12:10 144 1 gusting 2 19.9
2020-Sep-27 12:00 136 1 gusting 3 19.8
2020-Sep-27 11:40 122 1 gusting 3 19.7
2020-Sep-27 11:30 19.6
2020-Sep-27 11:20 19.6
2020-Sep-27 11:10 076 0 gusting 1 19.6
2020-Sep-27 11:00 19.6
2020-Sep-27 10:40 060 0 gusting 2 19.6
2020-Sep-27 10:30 19.7
2020-Sep-27 10:20 19.7
2020-Sep-27 10:10 19.7
2020-Sep-27 10:00 19.8
2020-Sep-27 09:40 19.8
2020-Sep-27 09:30 19.7
2020-Sep-27 09:20 138 1 gusting 2 19.7
2020-Sep-27 09:10 19.7
2020-Sep-27 09:00 092 1 gusting 1 19.7
2020-Sep-27 08:40 19.7
2020-Sep-27 08:30 19.7
2020-Sep-27 08:20 19.7
2020-Sep-27 08:10 19.6
2020-Sep-27 08:00 19.7
2020-Sep-27 07:40 19.8
2020-Sep-27 07:30 19.8
2020-Sep-27 07:20 19.9
2020-Sep-27 07:10 19.9
2020-Sep-27 07:00 19.9
2020-Sep-27 06:40 20.1
2020-Sep-27 06:30 20.1
2020-Sep-27 06:20 20.2
2020-Sep-27 06:10 20.2
2020-Sep-27 06:00 191 0 gusting 3 20.2
2020-Sep-27 05:40 20.2
2020-Sep-27 05:30 20.2
2020-Sep-27 05:20 20.3
2020-Sep-27 05:10 186 1 gusting 2 20.3
2020-Sep-27 05:00 20.3
2020-Sep-27 04:40 146 0 gusting 2 20.4
2020-Sep-27 04:30 20.4
2020-Sep-27 04:20 136 0 gusting 2 20.5
2020-Sep-27 04:10 20.5